| time (UTC) | temp F | wind direction | speed MPH | gust MPH | rain 1hr in | rain 24hr in | rain mn in | humidity % | barometer mb |
| 20260504180503 | 76 | 168 | 1.0 | 6.0 | 0.00 | 0.00 | 0.00 | 35 | 1016.7 |
| 20260504180005 | 76 | 296 | 3.0 | 6.0 | 0.00 | 0.00 | 0.00 | 37 | 1016.8 |
| 20260504175504 | 76 | 209 | 3.0 | 6.0 | 0.00 | 0.00 | 0.00 | 40 | 1016.8 |
| 20260504175003 | 75 | 258 | 2.0 | 7.0 | 0.00 | 0.00 | 0.00 | 42 | 1016.8 |
| 20260504174508 | 74 | 126 | 2.0 | 7.0 | 0.00 | 0.00 | 0.00 | 44 | 1016.8 |
| 20260504174003 | 74 | 196 | 3.0 | 7.0 | 0.00 | 0.00 | 0.00 | 39 | 1017.0 |
| 20260504173503 | 74 | 219 | 4.0 | 6.0 | 0.00 | 0.00 | 0.00 | 39 | 1017.0 |
| 20260504173011 | 74 | 10 | 1.0 | 7.0 | 0.00 | 0.00 | 0.00 | 43 | 1017.0 |
| 20260504172502 | 73 | 275 | 3.0 | 7.0 | 0.00 | 0.00 | 0.00 | 44 | 1017.1 |
| 20260504172002 | 73 | 284 | 2.0 | 6.0 | 0.00 | 0.00 | 0.00 | 41 | 1017.1 |
| 20260504171513 | 73 | 189 | 3.0 | 6.0 | 0.00 | 0.00 | 0.00 | 43 | 1017.1 |
| 20260504171006 | 73 | 239 | 2.0 | 4.0 | 0.00 | 0.00 | 0.00 | 41 | 1017.1 |
| 20260504170506 | 72 | 230 | 2.0 | 8.0 | 0.00 | 0.00 | 0.00 | 42 | 1017.2 |
| 20260504151005 | 69 | 252 | 4.0 | 7.0 | 0.00 | 0.00 | 0.00 | 46 | 1018.2 |
| 20260504150504 | 68 | 284 | 2.0 | 7.0 | 0.00 | 0.00 | 0.00 | 50 | 1018.2 |
| 20260504141009 | 65 | 246 | 3.0 | 5.0 | 0.00 | 0.00 | 0.00 | 52 | 1018.5 |
| 20260504140504 | 64 | 220 | 3.0 | 8.0 | 0.00 | 0.00 | 0.00 | 52 | 1018.5 |
| 20260504130511 | 53 | 206 | 0.0 | 2.0 | 0.00 | 0.00 | 0.00 | 90 | 1018.3 |
| 20260504110511 | 41 | 336 | 0.0 | 1.0 | 0.00 | 0.00 | 0.00 | 90 | 1018.1 |
| 20260504100506 | 41 | 336 | 0.0 | 0.0 | 0.00 | 0.00 | 0.00 | 89 | 1017.9 |
| 20260504081528 | 42 | 336 | 0.0 | 0.0 | 0.00 | 0.00 | 0.00 | 89 | 1017.7 |
| 20260504081009 | 42 | 336 | 0.0 | 0.0 | 0.00 | 0.00 | 0.00 | 89 | 1017.7 |
| 20260504080509 | 42 | 336 | 0.0 | 0.0 | 0.00 | 0.00 | 0.00 | 89 | 1017.8 |
| 20260504050513 | 45 | 336 | 0.0 | 1.0 | 0.00 | 0.00 | 0.00 | 86 | 1018.7 |
| 20260504050014 | 45 | 336 | 0.0 | 0.0 | 0.00 | 0.00 | 0.00 | 86 | 1018.7 |
| 20260504045503 | 46 | 336 | 0.0 | 0.0 | 0.00 | 0.00 | 0.00 | 85 | 1018.7 |
| 20260504045009 | 46 | 336 | 0.0 | 0.0 | 0.00 | 0.00 | 0.00 | 85 | 1018.8 |
| 20260504044525 | 46 | 336 | 0.0 | 2.0 | 0.00 | 0.00 | 0.00 | 85 | 1018.8 |
| 20260504044011 | 46 | 336 | 0.0 | 2.0 | 0.00 | 0.00 | 0.00 | 85 | 1018.8 |
| 20260504043507 | 46 | 336 | 0.0 | 0.0 | 0.00 | 0.00 | 0.00 | 85 | 1018.7 |
| 20260504043024 | 46 | 336 | 0.0 | 0.0 | 0.00 | 0.00 | 0.00 | 85 | 1018.8 |
| 20260504042509 | 46 | 336 | 0.0 | 0.0 | 0.00 | 0.00 | 0.00 | 84 | 1018.9 |
| 20260504042007 | 47 | 336 | 0.0 | 0.0 | 0.00 | 0.00 | 0.00 | 84 | 1018.9 |
| 20260504041521 | 47 | 336 | 0.0 | 0.0 | 0.00 | 0.00 | 0.00 | 84 | 1018.9 |
| 20260504041006 | 47 | 336 | 0.0 | 0.0 | 0.00 | 0.00 | 0.00 | 84 | 1019.0 |
| 20260504040507 | 47 | 336 | 0.0 | 0.0 | 0.00 | 0.00 | 0.00 | 84 | 1019.2 |
| 20260504040035 | 47 | 336 | 0.0 | 0.0 | 0.00 | 0.00 | 0.00 | 84 | 1019.1 |
| 20260504035510 | 47 | 336 | 0.0 | 0.0 | 0.00 | 0.00 | 0.00 | 84 | 1019.0 |
| 20260504035010 | 47 | 336 | 0.0 | 0.0 | 0.00 | 0.00 | 0.00 | 83 | 1019.0 |
| 20260504034514 | 48 | 336 | 0.0 | 0.0 | 0.00 | 0.00 | 0.00 | 83 | 1019.1 |
| 20260504034007 | 48 | 336 | 0.0 | 0.0 | 0.00 | 0.00 | 0.00 | 82 | 1019.0 |
| 20260504033507 | 48 | 336 | 0.0 | 0.0 | 0.00 | 0.00 | 0.00 | 82 | 1019.0 |
| 20260504033022 | 48 | 336 | 0.0 | 0.0 | 0.00 | 0.00 | 0.00 | 81 | 1019.1 |
| 20260504032507 | 48 | 336 | 0.0 | 0.0 | 0.00 | 0.00 | 0.00 | 81 | 1019.0 |
| 20260504032013 | 49 | 336 | 0.0 | 0.0 | 0.00 | 0.00 | 0.00 | 81 | 1019.1 |
| 20260504031516 | 49 | 336 | 0.0 | 0.0 | 0.00 | 0.00 | 0.00 | 80 | 1019.0 |
| 20260504031009 | 49 | 336 | 0.0 | 0.0 | 0.00 | 0.00 | 0.00 | 80 | 1019.0 |
| 20260504030507 | 49 | 336 | 0.0 | 0.0 | 0.00 | 0.00 | 0.00 | 79 | 1018.9 |
| 20260504030025 | 49 | 336 | 0.0 | 0.0 | 0.00 | 0.00 | 0.00 | 79 | 1019.0 |
| 20260504025508 | 50 | 336 | 0.0 | 0.0 | 0.00 | 0.00 | 0.00 | 78 | 1018.9 |
| 20260504025009 | 50 | 336 | 0.0 | 0.0 | 0.00 | 0.00 | 0.00 | 77 | 1018.9 |
| 20260504024524 | 50 | 336 | 0.0 | 0.0 | 0.00 | 0.00 | 0.00 | 77 | 1018.9 |
| 20260504024013 | 50 | 336 | 0.0 | 0.0 | 0.00 | 0.00 | 0.00 | 77 | 1018.9 |
| 20260504023511 | 51 | 336 | 0.0 | 0.0 | 0.00 | 0.00 | 0.00 | 76 | 1018.8 |
| 20260504023020 | 51 | 336 | 0.0 | 0.0 | 0.00 | 0.00 | 0.00 | 76 | 1018.8 |
| 20260504022509 | 51 | 336 | 0.0 | 0.0 | 0.00 | 0.00 | 0.00 | 76 | 1018.6 |
| 20260504022011 | 51 | 336 | 0.0 | 0.0 | 0.00 | 0.00 | 0.00 | 75 | 1018.7 |
| 20260504021520 | 52 | 336 | 0.0 | 0.0 | 0.00 | 0.00 | 0.00 | 75 | 1018.6 |
| 20260504021008 | 52 | 336 | 0.0 | 0.0 | 0.00 | 0.00 | 0.00 | 74 | 1018.5 |
| 20260504020509 | 52 | 336 | 0.0 | 1.0 | 0.00 | 0.00 | 0.00 | 74 | 1018.5 |
| 20260504020023 | 52 | 336 | 0.0 | 2.0 | 0.00 | 0.00 | 0.00 | 74 | 1018.4 |
| 20260504015511 | 52 | 336 | 0.0 | 2.0 | 0.00 | 0.00 | 0.00 | 74 | 1018.3 |
| 20260504015013 | 53 | 336 | 0.0 | 0.0 | 0.00 | 0.00 | 0.00 | 71 | 1018.2 |
| 20260504014525 | 54 | 336 | 0.0 | 1.0 | 0.00 | 0.00 | 0.00 | 70 | 1018.2 |
| 20260504014008 | 54 | 336 | 0.0 | 2.0 | 0.00 | 0.00 | 0.00 | 70 | 1018.2 |
| 20260504013509 | 54 | 336 | 0.0 | 2.0 | 0.00 | 0.00 | 0.00 | 69 | 1018.2 |
| 20260504013021 | 55 | 336 | 0.0 | 2.0 | 0.00 | 0.00 | 0.00 | 65 | 1018.2 |
| 20260504012510 | 56 | 336 | 0.0 | 2.0 | 0.00 | 0.00 | 0.00 | 65 | 1018.1 |
| 20260504012008 | 57 | 336 | 0.0 | 1.0 | 0.00 | 0.00 | 0.00 | 63 | 1018.0 |
| 20260504011525 | 57 | 336 | 0.0 | 0.0 | 0.00 | 0.00 | 0.00 | 61 | 1018.0 |
| 20260504011010 | 58 | 336 | 0.0 | 1.0 | 0.00 | 0.00 | 0.00 | 61 | 1018.0 |
| 20260504010507 | 58 | 336 | 0.0 | 1.0 | 0.00 | 0.00 | 0.00 | 59 | 1017.8 |
| 20260504010028 | 59 | 336 | 0.0 | 0.0 | 0.00 | 0.00 | 0.00 | 58 | 1017.8 |
| 20260504005505 | 59 | 336 | 0.0 | 0.0 | 0.00 | 0.00 | 0.00 | 58 | 1017.7 |
| 20260504005003 | 60 | 336 | 0.0 | 0.0 | 0.00 | 0.00 | 0.00 | 56 | 1017.7 |
| 20260504004521 | 60 | 336 | 0.0 | 0.0 | 0.00 | 0.00 | 0.00 | 55 | 1017.6 |
| 20260504004006 | 60 | 336 | 0.0 | 2.0 | 0.00 | 0.00 | 0.00 | 54 | 1017.6 |
| 20260504003510 | 61 | 336 | 0.0 | 2.0 | 0.00 | 0.00 | 0.00 | 54 | 1017.6 |
| 20260504003008 | 61 | 336 | 0.0 | 0.0 | 0.00 | 0.00 | 0.00 | 53 | 1017.4 |
| 20260504002503 | 62 | 336 | 0.0 | 1.0 | 0.00 | 0.00 | 0.00 | 52 | 1017.5 |
| 20260504002006 | 62 | 336 | 0.0 | 1.0 | 0.00 | 0.00 | 0.00 | 49 | 1017.4 |
| 20260504001507 | 63 | 336 | 0.0 | 2.0 | 0.00 | 0.00 | 0.00 | 48 | 1017.5 |
| 20260504001003 | 63 | 336 | 0.0 | 2.0 | 0.00 | 0.00 | 0.00 | 46 | 1017.5 |
| 20260504000505 | 64 | 336 | 0.0 | 2.0 | 0.00 | 0.00 | 0.00 | 47 | 1017.5 |
| 20260504000005 | 64 | 336 | 0.0 | 2.0 | 0.00 | 0.00 | 0.00 | 46 | 1017.4 |
| 20260503235503 | 64 | 336 | 0.0 | 2.0 | 0.00 | 0.00 | 0.00 | 44 | 1017.3 |
| 20260503235005 | 64 | 336 | 0.0 | 2.0 | 0.00 | 0.00 | 0.00 | 42 | 1017.4 |
| 20260503234505 | 65 | 336 | 0.0 | 3.0 | 0.00 | 0.00 | 0.00 | 42 | 1017.4 |
| 20260503234006 | 65 | 336 | 1.0 | 5.0 | 0.00 | 0.00 | 0.00 | 41 | 1017.4 |
| 20260503233502 | 65 | 311 | 1.0 | 5.0 | 0.00 | 0.00 | 0.00 | 41 | 1017.4 |
| 20260503233021 | 65 | 305 | 1.0 | 5.0 | 0.00 | 0.00 | 0.00 | 40 | 1017.4 |
| 20260503232507 | 65 | 332 | 2.0 | 5.0 | 0.00 | 0.00 | 0.00 | 39 | 1017.5 |
| 20260503232005 | 65 | 336 | 0.0 | 5.0 | 0.00 | 0.00 | 0.00 | 42 | 1017.5 |
| 20260503231505 | 65 | 24 | 2.0 | 6.0 | 0.00 | 0.00 | 0.00 | 40 | 1017.5 |
| 20260503231003 | 66 | 262 | 3.0 | 6.0 | 0.00 | 0.00 | 0.00 | 38 | 1017.4 |
| 20260503230504 | 66 | 249 | 3.0 | 6.0 | 0.00 | 0.00 | 0.00 | 40 | 1017.5 |
| 20260503230005 | 66 | 326 | 3.0 | 7.0 | 0.00 | 0.00 | 0.00 | 38 | 1017.5 |
| 20260503225503 | 66 | 298 | 1.0 | 8.0 | 0.00 | 0.00 | 0.00 | 37 | 1017.5 |
| 20260503225007 | 66 | 331 | 4.0 | 8.0 | 0.00 | 0.00 | 0.00 | 36 | 1017.6 |
| 20260503224515 | 66 | 266 | 2.0 | 6.0 | 0.00 | 0.00 | 0.00 | 36 | 1017.6 |
| 20260503224003 | 67 | 23 | 1.0 | 8.0 | 0.00 | 0.00 | 0.00 | 33 | 1017.6 |
| 20260503223503 | 67 | 328 | 2.0 | 9.0 | 0.00 | 0.00 | 0.00 | 34 | 1017.6 |
| 20260503223022 | 67 | 331 | 5.0 | 9.0 | 0.00 | 0.00 | 0.00 | 34 | 1017.6 |
| 20260503222503 | 68 | 334 | 4.0 | 9.0 | 0.00 | 0.00 | 0.00 | 33 | 1017.6 |
| 20260503222006 | 68 | 23 | 5.0 | 9.0 | 0.00 | 0.00 | 0.00 | 32 | 1017.7 |
| 20260503221504 | 68 | 291 | 2.0 | 8.0 | 0.00 | 0.00 | 0.00 | 32 | 1017.6 |
| 20260503221006 | 68 | 316 | 3.0 | 9.0 | 0.00 | 0.00 | 0.00 | 32 | 1017.6 |
| 20260503220504 | 68 | 315 | 3.0 | 9.0 | 0.00 | 0.00 | 0.00 | 34 | 1017.6 |
| 20260503220005 | 68 | 261 | 3.0 | 9.0 | 0.00 | 0.00 | 0.00 | 34 | 1017.6 |
| 20260503215506 | 68 | 343 | 4.0 | 9.0 | 0.00 | 0.00 | 0.00 | 34 | 1017.6 |
| 20260503215002 | 68 | 322 | 5.0 | 9.0 | 0.00 | 0.00 | 0.00 | 33 | 1017.6 |
| 20260503214513 | 68 | 340 | 3.0 | 9.0 | 0.00 | 0.00 | 0.00 | 34 | 1017.8 |
| 20260503214003 | 68 | 360 | 3.0 | 9.0 | 0.00 | 0.00 | 0.00 | 34 | 1017.8 |
| 20260503213502 | 68 | 319 | 5.0 | 9.0 | 0.00 | 0.00 | 0.00 | 34 | 1017.7 |
| 20260503213008 | 68 | 351 | 3.0 | 8.0 | 0.00 | 0.00 | 0.00 | 36 | 1017.8 |
| 20260503212503 | 68 | 22 | 4.0 | 8.0 | 0.00 | 0.00 | 0.00 | 33 | 1017.9 |
| 20260503212008 | 68 | 335 | 4.0 | 11.0 | 0.00 | 0.00 | 0.00 | 33 | 1017.9 |
| 20260503211518 | 68 | 360 | 5.0 | 11.0 | 0.00 | 0.00 | 0.00 | 33 | 1017.9 |
| 20260503211011 | 68 | 262 | 2.0 | 11.0 | 0.00 | 0.00 | 0.00 | 34 | 1017.9 |
| 20260503210510 | 68 | 344 | 5.0 | 11.0 | 0.00 | 0.00 | 0.00 | 35 | 1018.0 |
| 20260503210016 | 68 | 314 | 5.0 | 9.0 | 0.00 | 0.00 | 0.00 | 35 | 1017.9 |
| 20260503205505 | 68 | 294 | 2.0 | 9.0 | 0.00 | 0.00 | 0.00 | 36 | 1018.0 |
| 20260503205006 | 68 | 326 | 4.0 | 8.0 | 0.00 | 0.00 | 0.00 | 36 | 1018.0 |
| 20260503204519 | 69 | 227 | 2.0 | 8.0 | 0.00 | 0.00 | 0.00 | 35 | 1018.1 |
| 20260503204016 | 68 | 322 | 4.0 | 10.0 | 0.00 | 0.00 | 0.00 | 35 | 1018.1 |
| 20260503203505 | 68 | 310 | 3.0 | 11.0 | 0.00 | 0.00 | 0.00 | 39 | 1018.2 |
| 20260503203014 | 68 | 300 | 5.0 | 11.0 | 0.00 | 0.00 | 0.00 | 36 | 1018.3 |
| 20260503202509 | 68 | 327 | 4.0 | 10.0 | 0.00 | 0.00 | 0.00 | 37 | 1018.4 |
| 20260503202007 | 68 | 27 | 3.0 | 8.0 | 0.00 | 0.00 | 0.00 | 42 | 1018.4 |
| 20260503201514 | 67 | 351 | 2.0 | 13.0 | 0.00 | 0.00 | 0.00 | 37 | 1018.5 |
| 20260503201006 | 67 | 299 | 3.0 | 13.0 | 0.00 | 0.00 | 0.00 | 38 | 1018.5 |
| 20260503200507 | 67 | 306 | 8.0 | 13.0 | 0.00 | 0.00 | 0.00 | 35 | 1018.7 |
| 20260503200010 | 67 | 346 | 5.0 | 11.0 | 0.00 | 0.00 | 0.00 | 37 | 1018.8 |
| 20260503195506 | 68 | 39 | 4.0 | 10.0 | 0.00 | 0.00 | 0.00 | 37 | 1018.8 |
| 20260503195003 | 68 | 329 | 1.0 | 8.0 | 0.00 | 0.00 | 0.00 | 36 | 1018.9 |
| 20260503194508 | 68 | 264 | 5.0 | 11.0 | 0.00 | 0.00 | 0.00 | 36 | 1019.1 |
| 20260503194010 | 68 | 302 | 3.0 | 11.0 | 0.00 | 0.00 | 0.00 | 32 | 1019.2 |
| 20260503193510 | 67 | 259 | 3.0 | 11.0 | 0.00 | 0.00 | 0.00 | 35 | 1019.2 |
| 20260503193037 | 67 | 14 | 2.0 | 11.0 | 0.00 | 0.00 | 0.00 | 36 | 1019.3 |
| 20260503192506 | 67 | 329 | 6.0 | 11.0 | 0.00 | 0.00 | 0.00 | 37 | 1019.3 |
| 20260503192010 | 67 | 348 | 4.0 | 9.0 | 0.00 | 0.00 | 0.00 | 37 | 1019.5 |
| 20260503191516 | 68 | 298 | 3.0 | 9.0 | 0.00 | 0.00 | 0.00 | 36 | 1019.7 |
| 20260503191004 | 68 | 347 | 3.0 | 9.0 | 0.00 | 0.00 | 0.00 | 44 | 1019.7 |
| 20260503190506 | 67 | 240 | 6.0 | 11.0 | 0.00 | 0.00 | 0.00 | 40 | 1019.7 |
| 20260503190021 | 66 | 285 | 4.0 | 11.0 | 0.00 | 0.00 | 0.00 | 39 | 1019.7 |
| 20260503185510 | 66 | 238 | 3.0 | 9.0 | 0.00 | 0.00 | 0.00 | 39 | 1019.8 |
| 20260503185003 | 66 | 245 | 4.0 | 9.0 | 0.00 | 0.00 | 0.00 | 39 | 1019.9 |
| 20260503184521 | 65 | 157 | 1.0 | 8.0 | 0.00 | 0.00 | 0.00 | 39 | 1019.9 |
| 20260503184009 | 65 | 352 | 4.0 | 8.0 | 0.00 | 0.00 | 0.00 | 41 | 1020.1 |
| 20260503183507 | 66 | 327 | 2.0 | 9.0 | 0.00 | 0.00 | 0.00 | 38 | 1020.2 |
| 20260503183018 | 66 | 279 | 3.0 | 9.0 | 0.00 | 0.00 | 0.00 | 36 | 1020.1 |
| 20260503182507 | 66 | 349 | 3.0 | 11.0 | 0.00 | 0.00 | 0.00 | 43 | 1020.2 |
| 20260503182007 | 66 | 298 | 5.0 | 11.0 | 0.00 | 0.00 | 0.00 | 38 | 1020.3 |
| 20260503181519 | 65 | 293 | 4.0 | 10.0 | 0.00 | 0.00 | 0.00 | 39 | 1020.3 |
| 20260503181010 | 65 | 295 | 1.0 | 9.0 | 0.00 | 0.00 | 0.00 | 42 | 1020.3 |